sat.trackr.live / text

‹ back to catalog

IRIDIUM 156

NORAD 43576 · 2018-061H

PAYLOAD ACTIVE UNKNOWN

§ Identity

Operator
Country
US
Launch date
2018-07-25
Launch site
AFWTR
Launch vehicle
Mass (kg)
RCS (m²)

Purposes: comms

External: N2YO · Heavens-Above · Gunter

§ Orbital elements

Epoch: 2026-09-04T03:57:49.672800Z

Period
100.40 min
Inclination
86.3984°
Eccentricity
0.0002244
Mean motion
14.34222507 rev/d
Perigee alt
776.0 km
Apogee alt
779.3 km
Semi-major
7,155.8 km
B*
4.5009e-5
RAAN
23.6914°
Arg perigee
89.7925°
Mean anomaly
270.3528°
Rev number
42,469

§ Raw data

IRIDIUM 1561 43576U 18061H   26247.16515825  .00000146  00000+0  45009-4 0  99972 43576  86.3984  23.6914 0002244  89.7925 270.3528 14.34222507424694

JSON: /api/v1/satellites/43576 · /tle

For live sub-satellite position, see the globe view (requires WebGL).

§ Visibility from observer

Set your observer location to see the next 7 days of passes ≥ 10°. The values pass through the URL so the page stays shareable.

No JS? Fill the form by hand. The geolocation button needs JavaScript.